EW0991 Weather Reports


time (UTC)temp
F
wind
direction
speed
knots
gust
knots
rain 1hr
in
rain 24hr
in
rain mn
in
humidity
%
barometer
mb
20260510104509 0 0.0 0.0 0.00 0.12 0.00 1012.4
20260510103010 0 0.0 0.0 0.00 0.12 0.00 1012.4
20260510101508 0 0.0 0.0 0.00 0.12 0.00 1012.8
20260510100003 0 0.0 0.0 0.00 0.12 0.00 1012.7
20260510094601 0 0.0 0.0 0.00 0.12 0.00 1012.2
20260510093057 0 0.0 0.0 0.00 0.12 0.00 1012.1
20260510091549 0 0.0 0.0 0.00 0.12 0.00 1011.9
20260510090048 51 154 0.0 0.0 0.00 0.12 0.00 95 1012.1
20260510084552 50 152 0.0 0.0 0.00 0.12 0.00 95 1012.0
20260510083047 50 168 0.0 0.0 0.00 0.12 0.00 95 1012.1
20260510081542 50 154 0.0 0.0 0.00 0.12 0.00 95 1012.1
20260510080043 49 154 0.0 0.0 0.00 0.12 0.00 95 1012.2
20260510074552 49 153 0.0 0.0 0.00 0.12 0.00 95 1012.5
20260510073046 49 264 0.0 0.0 0.00 0.12 0.00 95 1012.5
20260510071552 48 267 0.0 0.0 0.00 0.12 0.00 95 1012.7
20260510070041 49 327 0.0 0.0 0.00 0.12 0.00 95 1012.8
20260510064552 49 81 0.0 0.0 0.00 0.12 0.00 95 1011.9
20260510063038 48 81 0.0 0.0 0.00 0.12 0.00 95 1011.9
20260510061538 48 222 0.0 0.0 0.00 0.12 0.00 95 1012.1
20260510060041 48 223 0.0 0.0 0.00 0.12 0.00 95 1012.3
20260510054535 47 254 0.0 0.0 0.00 0.12 0.00 94 1012.4
20260510053033 48 243 0.0 0.0 0.00 0.12 0.00 95 1011.6
20260510051538 48 243 0.0 0.0 0.00 0.12 0.00 95 1011.6
20260510050028 48 243 0.0 0.0 0.00 0.12 0.00 94 1011.7
20260510044530 48 243 0.0 0.0 0.00 0.12 0.00 94 1011.8
20260510043026 49 243 0.0 0.0 0.00 0.12 0.00 94 1011.7
20260510041523 49 243 0.0 0.0 0.00 0.12 0.00 94 1011.9
20260510040021 50 243 0.0 0.0 0.00 0.12 0.12 94 1011.7
20260510034519 50 243 0.0 0.0 0.00 0.12 0.12 94 1011.8
20260510033020 50 243 0.0 0.0 0.00 0.12 0.12 94 1011.7
20260510031517 50 171 0.0 0.0 0.00 0.12 0.12 93 1011.8
20260510030017 51 171 0.0 0.0 0.00 0.12 0.12 93 1011.8
20260510024521 52 126 0.0 0.0 0.00 0.12 0.12 93 1011.7
20260510023019 53 126 0.0 0.0 0.00 0.12 0.12 92 1011.6
20260510021515 53 126 0.0 0.0 0.00 0.12 0.12 92 1011.4
20260510020015 53 120 0.0 0.0 0.00 0.12 0.12 92 1011.3
20260510014521 53 65 0.0 0.0 0.00 0.12 0.12 91 1011.2
20260510013014 54 65 0.0 0.0 0.00 0.12 0.12 90 1011.2
20260510011518 54 131 0.0 0.0 0.00 0.12 0.12 90 1011.1
20260510010014 55 152 0.0 0.0 0.00 0.12 0.12 89 1011.0
20260510004512 55 158 0.0 0.0 0.00 0.12 0.12 88 1010.8
20260510003013 55 162 0.0 0.0 0.00 0.12 0.12 86 1010.7
20260510001511 56 159 0.0 0.0 0.00 0.12 0.12 83 1010.4
20260510000010 58 159 0.0 0.0 0.00 0.12 0.12 79 1010.3
20260509234511 59 143 0.0 0.0 0.00 0.12 0.12 77 1010.3
20260509233010 60 68 0.0 0.0 0.00 0.12 0.12 78 1010.3
20260509231510 60 68 0.0 0.0 0.00 0.12 0.12 76 1010.3
20260509230009 61 68 0.0 0.0 0.00 0.12 0.12 75 1010.3
20260509224511 63 221 0.0 0.0 0.00 0.12 0.12 70 1010.3
20260509223006 62 221 0.0 0.0 0.00 0.12 0.12 74 1010.2
20260509221504 59 249 0.0 0.0 0.00 0.12 0.12 78 1010.3
20260509220107 58 264 0.0 0.0 0.00 0.12 0.12 83 1010.3
20260509214558 57 274 0.0 0.0 0.00 0.12 0.12 82 1010.6
20260509213058 57 259 0.0 0.0 0.00 0.12 0.12 84 1010.5
20260509211556 56 251 0.0 0.0 0.00 0.12 0.12 84 1010.5
20260509210059 56 247 0.0 0.0 0.00 0.12 0.12 83 1010.7
20260509204558 57 278 0.0 0.0 0.00 0.12 0.12 83 1011.1
20260509203055 57 323 0.0 0.0 0.00 0.12 0.12 85 1011.0
20260509201550 56 19 0.0 0.0 0.00 0.12 0.12 89 1011.1
20260509200055 55 281 0.0 0.0 0.00 0.12 0.12 91 1011.0
20260509194548 55 236 0.0 0.0 0.00 0.12 0.12 95 1011.2
20260509193059 54 245 0.0 0.0 0.02 0.12 0.12 95 1011.2
20260509191607 54 122 0.0 0.0 0.02 0.12 0.12 95 1011.4
20260509190051 53 237 0.0 0.0 0.03 0.12 0.12 95 1011.9
20260509184543 52 237 0.0 0.0 0.03 0.12 0.12 95 1012.4
20260509183043 52 244 0.0 0.0 0.02 0.10 0.10 95 1012.4
20260509181542 52 249 0.0 0.0 0.02 0.10 0.10 95 1012.5
20260509180041 52 256 0.0 0.0 0.02 0.09 0.09 95 1012.4
20260509174541 52 257 0.0 0.0 0.03 0.09 0.09 95 1012.3
20260509173052 52 257 0.0 0.0 0.05 0.08 0.08 94 1012.4
20260509171548 52 267 0.0 0.0 0.06 0.08 0.08 94 1012.1
20260509170042 52 264 0.0 0.0 0.07 0.07 0.07 94 1012.2
20260509164547 53 281 0.0 0.0 0.06 0.06 0.06 93 1012.1
20260509163048 54 285 0.0 0.0 0.03 0.03 0.03 93 1012.4
20260509161535 54 261 0.0 0.0 0.02 0.02 0.02 93 1012.7
20260509160034 55 249 0.0 0.0 0.00 0.00 0.00 90 1012.6
20260509154532 57 223 0.0 0.0 0.00 0.00 0.00 77 1012.8
20260509153036 58 228 0.0 0.0 0.00 0.00 0.00 75 1012.9
20260509151534 58 259 0.0 0.0 0.00 0.00 0.00 76 1012.7
20260509150032 57 272 0.0 0.0 0.00 0.00 0.00 75 1012.6
20260509144530 57 219 0.0 0.0 0.00 0.00 0.00 74 1012.6
20260509143030 58 242 0.0 0.0 0.00 0.00 0.00 74 1012.4
20260509141535 57 139 0.0 0.0 0.00 0.00 0.00 75 1012.3
20260509140033 57 233 0.0 0.0 0.00 0.00 0.00 76 1012.3
20260509134530 57 274 0.0 0.0 0.00 0.00 0.00 75 1012.3
20260509133027 56 200 0.0 0.0 0.00 0.00 0.00 77 1012.2
20260509131520 55 69 0.0 0.0 0.00 0.00 0.00 79 1012.3
20260509130032 55 71 0.0 0.0 0.00 0.00 0.00 79 1012.2
20260509124526 55 71 0.0 0.0 0.00 0.00 0.00 79 1012.2
20260509123024 54 71 0.0 0.0 0.00 0.00 0.00 79 1012.2
20260509121520 54 71 0.0 0.0 0.00 0.00 0.00 78 1012.4
20260509120015 53 72 0.0 0.0 0.00 0.00 0.00 81 1012.4
20260509114514 52 71 0.0 0.0 0.00 0.00 0.00 82 1012.3
20260509113012 51 71 0.0 0.0 0.00 0.00 0.00 83 1012.2
20260509111512 51 71 0.0 0.0 0.00 0.00 0.00 84 1012.2
20260509110019 0 0.0 0.0 0.00 0.00 0.00 1012.0